[[{"header":{"parameterUnit":"m.s-1","parameterCategory":1,"la1":30.2991,"la2":30.254,"lo1":-89.0895,"lo2":-89.0444,"dy":0.0017,"dx":0.0017,"nx":28,"ny":28,"refTime":"2025-01-24T09:00:00:Z","depth":0,"parameterNumber":2,"parameterNumberName":"U-component_of_WINDS"},"data":[0,0,0,0,0,0,0,0,0,0,0,0,0,0,0,0,0,0,0,0,0,0,0,0,0,0,0,0,0,0,0,0,0,0,0,0,0,0,0,0,0,0,0,0,0,0,0,0,0,0,0,0,0,0,0,0,0,0,1.0492,1.0491,0,1.0452,1.0452,1.0451,1.0403,1.0402,1.0402,1.0401,1.0359,1.0358,1.0358,0,0,0,0,0,0,0,0,0,0,0,0,0,1.0526,1.0526,1.0492,1.0491,1.0491,1.0452,1.0452,1.0451,1.0403,1.0402,1.0401,1.0401,1.0359,1.0359,1.0358,0,0,0,0,0,0,0,0,0,0,0,0,0,1.0501,1.0525,1.0492,1.0462,1.0459,1.0452,1.0452,1.0451,1.0403,1.0402,1.0401,1.04,1.0359,1.0359,1.0358,1.0376,0,0,1.0356,1.0356,0,0,0,0,0,0,0,0,1.0503,1.05,1.0467,1.0464,1.0461,1.0431,1.0448,1.0426,1.0404,1.0425,1.0401,1.04,1.0384,1.0381,1.0376,1.0374,1.0373,1.0356,1.0356,1.0355,1.0355,0,0,0,0,0,0,0,1.0504,1.0501,1.0476,1.0467,1.0463,1.0451,1.0446,1.0444,1.0411,1.0423,1.0419,1.0415,1.0382,1.0377,1.0375,1.0372,1.0356,1.0355,1.0355,1.0355,1.0384,1.0385,0,0,0,0,0,0,1.0511,1.0503,1.0477,1.0475,1.048,1.0451,1.0446,1.0442,1.0411,1.0405,1.0416,1.0413,1.0378,1.0376,1.0373,1.0393,1.0355,1.0355,1.0354,1.0383,1.0384,1.0386,0,0,0,0,0,0,1.0512,1.0509,1.0479,1.0488,1.0483,1.0452,1.0448,1.0442,1.0437,1.0406,1.04,1.0417,1.0377,1.0374,1.0376,1.0391,1.0354,1.0354,1.0382,1.0383,1.0385,1.0433,0,0,0,0,0,0,1.0513,1.0509,1.0516,1.0489,1.0483,1.0483,1.0449,1.0442,1.0436,1.0431,1.0405,1.04,1.0376,1.0377,1.0376,1.0389,1.0353,1.038,1.0382,1.0384,1.043,1.0436,1.0442,0,0,0,0,0,1.0514,1.0531,1.0517,1.0514,1.0491,1.0484,1.0481,1.0454,1.0437,1.0444,1.0424,1.04,1.039,1.0378,1.0375,1.0389,1.0379,1.0382,1.0384,1.0428,1.0435,1.0442,0,0,0,0,0,0,1.056,1.0527,1.0511,1.0519,1.0505,1.0476,1.0483,1.0463,1.0453,1.0449,1.0416,1.041,1.0417,1.0403,1.0391,1.0406,1.0381,1.0383,1.0415,1.0422,1.0427,1.0431,1.0353,0,0,0,0,0,1.0572,1.0569,1.054,1.055,1.0544,1.0515,1.0511,1.0492,1.0475,1.0469,1.0449,1.0434,1.0428,1.0424,1.0416,1.0428,1.0422,1.0436,1.0442,1.0447,1.0449,1.0456,1.0462,1.0394,1.0394,1.0394,0,0,1.0595,1.0576,1.0576,1.0559,1.0545,1.0544,1.051,1.0509,1.0508,1.0469,1.047,1.0455,1.0436,1.0444,1.0446,1.0433,1.0467,1.045,1.0455,1.0454,1.0459,1.0466,1.0471,1.0396,1.0396,1.0395,0,0,1.0636,1.0621,1.0629,1.0616,1.0597,1.0578,1.058,1.0554,1.0543,1.0544,1.0515,1.0512,1.0501,1.0489,1.0481,1.0519,1.0497,1.0518,1.0548,1.0554,1.056,1.0564,1.0578,1.0584,1.052,1.052,1.052,0,1.0667,1.0663,1.0635,1.0636,1.063,1.0595,1.0602,1.0592,1.057,1.0567,1.0552,1.0538,1.0523,1.0527,1.0537,1.0532,1.0533,1.052,1.0561,1.0566,1.0569,1.0583,1.0588,1.0523,1.0522,1.0522,1.0522,0,1.0703,1.0701,1.0709,1.0691,1.0685,1.0689,1.0661,1.0659,1.064,1.0623,1.0624,1.0605,1.0593,1.0592,1.0574,1.0595,1.0587,1.0567,1.0542,1.0579,1.0591,1.0596,1.0527,1.0526,1.0525,1.0524,0,0,1.0772,1.0738,1.0742,1.0733,1.071,1.0707,1.071,1.0699,1.0698,1.0685,1.0686,1.0678,1.066,1.0652,1.0632,1.0637,1.067,1.0617,1.0616,1.0628,1.0692,1.0708,1.0714,1.0655,1.0656,1.0656,1.0694,0,1.0809,1.0813,1.0788,1.0798,1.0796,1.0764,1.0766,1.0752,1.0736,1.0732,1.0713,1.0709,1.0685,1.068,1.0684,1.0665,1.0682,1.0662,1.0656,1.0657,1.0663,1.072,1.0736,1.0772,1.0698,1.0699,1.07,0,1.0854,1.0844,1.0854,1.0831,1.0829,1.0832,1.082,1.0816,1.08,1.0788,1.0779,1.0756,1.0757,1.0733,1.0734,1.0721,1.0717,1.0708,1.0709,1.0707,1.0681,1.0721,1.0783,1.0789,1.0706,1.0706,1.0705,0,1.0904,1.0893,1.0898,1.0892,1.0864,1.0867,1.0856,1.0838,1.0833,1.0823,1.0819,1.0809,1.0804,1.0796,1.0771,1.0756,1.0776,1.0749,1.0766,1.0767,1.0772,1.0772,1.0836,1.0769,1.0769,1.0769,1.0769,0,1.0949,1.0957,1.092,1.0924,1.0932,1.0902,1.0911,1.0896,1.0881,1.0881,1.0852,1.0852,1.0819,1.0816,1.0796,1.0801,1.0798,1.0789,1.0784,1.0792,1.0793,1.0789,1.0786,1.077,1.077,1.077,1.077,0,1.1007,1.0983,1.0986,1.096,1.0954,1.0961,1.0939,1.0941,1.0923,1.0923,1.0921,1.0893,1.0888,1.0863,1.0851,1.0838,1.085,1.0839,1.0856,1.0852,1.0871,1.087,1.0935,1.0942,1.087,1.0871,1.0872,0,1.1037,1.1043,1.1018,1.1016,1.1006,1.1003,1.0998,1.0969,1.0966,1.0948,1.0952,1.0944,1.0937,1.093,1.0909,1.09,1.0889,1.0912,1.0887,1.0896,1.089,1.0891,1.0891,1.0918,1.0919,1.0919,1.092,0,1.1094,1.1082,1.1076,1.1067,1.1062,1.1053,1.1042,1.1042,1.1011,1.1008,1.1002,1.0997,1.0985,1.0978,1.0966,1.0954,1.0932,1.0928,1.0932,1.094,1.095,1.0946,1.0871,1.0927,1.0926,1.0926,1.0925,1.0925,1.114,1.1143,1.1127,1.1121,1.111,1.1101,1.1102,1.1084,1.108,1.1069,1.1052,1.1049,1.1033,1.1014,1.1004,1.1001,1.0989,1.0994,1.0995,1.0997,1.1002,1.095,1.0999,1.0999,1.0998,1.0998,1.0998,0,1.1196,1.1184,1.1179,1.1165,1.1161,1.1141,1.1128,1.1126,1.1124,1.1111,1.1104,1.1099,1.1092,1.107,1.1061,1.1064,1.1053,1.1062,1.1062,1.106,1.1013,1.1011,1.1071,1.1071,1.1071,1.1071,1.1071,1.1071,1.1225,1.123,1.1216,1.1216,1.1203,1.1201,1.1195,1.1187,1.1176,1.1171,1.1165,1.1151,1.1135,1.1125,1.1118,1.1112,1.111,1.1123,1.1113,1.107,1.1063,1.1056,1.1055,1.1122,1.1123,1.1161,1.1161,1.1161]},{"header":{"parameterUnit":"m.s-1","parameterCategory":1,"la1":30.2991,"la2":30.254,"lo1":-89.0895,"lo2":-89.0444,"dy":0.0017,"dx":0.0017,"nx":28,"ny":28,"refTime":"2025-01-24T09:00:00:Z","depth":0,"parameterNumber":3,"parameterNumberName":"V-component_of_WINDS"},"data":[0,0,0,0,0,0,0,0,0,0,0,0,0,0,0,0,0,0,0,0,0,0,0,0,0,0,0,0,0,0,0,0,0,0,0,0,0,0,0,0,0,0,0,0,0,0,0,0,0,0,0,0,0,0,0,0,0,0,-3.5409,-3.5411,0,-3.5559,-3.5561,-3.5563,-3.5541,-3.5539,-3.5536,-3.5534,-3.5686,-3.5692,-3.5698,0,0,0,0,0,0,0,0,0,0,0,0,0,-3.5102,-3.5108,-3.5409,-3.5411,-3.5413,-3.5559,-3.5561,-3.5563,-3.5542,-3.5539,-3.5536,-3.5533,-3.5684,-3.5691,-3.5699,0,0,0,0,0,0,0,0,0,0,0,0,0,-3.5242,-3.511,-3.5409,-3.542,-3.5423,-3.5559,-3.5561,-3.5564,-3.5543,-3.5539,-3.5535,-3.5532,-3.5681,-3.569,-3.57,-3.5834,0,0,-3.5729,-3.5733,0,0,0,0,0,0,0,0,-3.5234,-3.5253,-3.5417,-3.542,-3.5423,-3.5528,-3.5508,-3.5654,-3.5543,-3.5497,-3.5534,-3.553,-3.5636,-3.5649,-3.5685,-3.5841,-3.5847,-3.573,-3.5736,-3.574,-3.5742,0,0,0,0,0,0,0,-3.5225,-3.5247,-3.5469,-3.5419,-3.5423,-3.5417,-3.5433,-3.5536,-3.5586,-3.5501,-3.55,-3.5518,-3.5637,-3.5676,-3.5689,-3.585,-3.573,-3.5738,-3.5744,-3.5748,-3.6123,-3.6127,0,0,0,0,0,0,-3.5212,-3.5239,-3.5464,-3.5473,-3.5317,-3.5425,-3.5443,-3.5498,-3.5584,-3.5594,-3.5521,-3.5516,-3.5662,-3.5678,-3.5694,-3.5857,-3.574,-3.5749,-3.5754,-3.6118,-3.6124,-3.6128,0,0,0,0,0,0,-3.5206,-3.5232,-3.5458,-3.5356,-3.5384,-3.5435,-3.5496,-3.5503,-3.5542,-3.56,-3.5608,-3.5552,-3.5659,-3.5681,-3.5799,-3.5862,-3.5753,-3.5762,-3.6113,-3.612,-3.6126,-3.6183,0,0,0,0,0,0,-3.5197,-3.523,-3.5282,-3.5357,-3.539,-3.5561,-3.55,-3.5508,-3.5559,-3.5554,-3.5631,-3.564,-3.5658,-3.5785,-3.5809,-3.5873,-3.5769,-3.6108,-3.6116,-3.6124,-3.6176,-3.6191,-3.6203,0,0,0,0,0,-3.5186,-3.5292,-3.5285,-3.5312,-3.5456,-3.5565,-3.5584,-3.5603,-3.5564,-3.5616,-3.5653,-3.5638,-3.5851,-3.5798,-3.5824,-3.5892,-3.6104,-3.6114,-3.6123,-3.617,-3.6188,-3.6203,0,0,0,0,0,0,-3.5222,-3.5302,-3.5295,-3.5429,-3.549,-3.5561,-3.5628,-3.5621,-3.5694,-3.5687,-3.5707,-3.5724,-3.5845,-3.588,-3.5819,-3.6026,-3.5972,-3.5987,-3.5999,-3.6016,-3.603,-3.6018,-3.5777,0,0,0,0,0,-3.5246,-3.5329,-3.5394,-3.5505,-3.5536,-3.5577,-3.5625,-3.5635,-3.5699,-3.5725,-3.577,-3.5833,-3.5914,-3.5967,-3.6045,-3.6181,-3.6197,-3.6241,-3.6254,-3.6265,-3.6278,-3.6353,-3.6373,-3.6159,-3.6159,-3.6159,0,0,-3.5295,-3.5349,-3.54,-3.5514,-3.5563,-3.5647,-3.5599,-3.5691,-3.5754,-3.5739,-3.5854,-3.5889,-3.596,-3.6089,-3.6147,-3.6122,-3.6341,-3.6277,-3.6286,-3.6293,-3.6364,-3.6385,-3.6403,-3.6166,-3.6165,-3.6164,0,0,-3.5429,-3.5478,-3.5576,-3.5627,-3.5702,-3.5728,-3.5751,-3.5824,-3.5847,-3.5963,-3.5954,-3.6028,-3.6168,-3.6219,-3.6263,-3.6416,-3.6404,-3.6441,-3.6512,-3.6584,-3.6601,-3.6616,-3.6671,-3.669,-3.6453,-3.6453,-3.6453,0,-3.5481,-3.5609,-3.5627,-3.5721,-3.5771,-3.5762,-3.5861,-3.5909,-3.6005,-3.6039,-3.601,-3.6184,-3.6232,-3.6371,-3.6409,-3.6445,-3.6472,-3.6432,-3.6597,-3.6613,-3.6627,-3.6679,-3.67,-3.6457,-3.6457,-3.6456,-3.6456,0,-3.5669,-3.5758,-3.5828,-3.5922,-3.598,-3.6075,-3.6108,-3.6164,-3.6169,-3.6198,-3.6316,-3.6372,-3.6461,-3.6495,-3.65,-3.6636,-3.6618,-3.6593,-3.6539,-3.6651,-3.67,-3.672,-3.6463,-3.6461,-3.646,-3.6459,0,0,-3.5829,-3.5933,-3.5958,-3.6001,-3.6083,-3.6151,-3.6246,-3.6334,-3.6382,-3.6449,-3.6529,-3.6647,-3.6624,-3.6674,-3.6685,-3.6748,-3.6866,-3.6715,-3.6717,-3.6741,-3.7019,-3.7037,-3.706,-3.6859,-3.6862,-3.6866,-3.7013,0,-3.5971,-3.6139,-3.6159,-3.6309,-3.6391,-3.6384,-3.6467,-3.6526,-3.6555,-3.6629,-3.6661,-3.6745,-3.6709,-3.6739,-3.6801,-3.6838,-3.6922,-3.6828,-3.6933,-3.6936,-3.6915,-3.7086,-3.7106,-3.7243,-3.7032,-3.7036,-3.7038,0,-3.6158,-3.6231,-3.6389,-3.646,-3.6495,-3.6569,-3.6651,-3.6722,-3.6788,-3.6806,-3.6862,-3.6864,-3.6962,-3.6904,-3.7039,-3.6974,-3.7018,-3.7043,-3.7049,-3.7059,-3.6994,-3.7101,-3.7286,-3.7307,-3.7069,-3.7066,-3.7064,0,-3.6259,-3.6397,-3.6509,-3.6546,-3.6631,-3.6684,-3.6721,-3.6784,-3.6836,-3.6907,-3.6941,-3.7022,-3.7067,-3.713,-3.7154,-3.711,-3.7287,-3.7232,-3.7304,-3.7304,-3.7342,-3.7339,-3.7537,-3.737,-3.737,-3.7369,-3.7369,0,-3.6415,-3.6512,-3.6556,-3.6625,-3.6734,-3.6755,-3.6862,-3.6897,-3.6953,-3.7029,-3.7027,-3.7098,-3.7126,-3.7201,-3.722,-3.7328,-3.7349,-3.7365,-3.7369,-3.7365,-3.7363,-3.7394,-3.7386,-3.7375,-3.7374,-3.7373,-3.7372,0,-3.6547,-3.658,-3.6702,-3.6773,-3.6793,-3.687,-3.693,-3.6997,-3.7026,-3.7122,-3.7145,-3.719,-3.7279,-3.7309,-3.7416,-3.7429,-3.7555,-3.7551,-3.7533,-3.7534,-3.7604,-3.7597,-3.7829,-3.7861,-3.7673,-3.7675,-3.7676,0,-3.6644,-3.6719,-3.6798,-3.6849,-3.6889,-3.6971,-3.7023,-3.7047,-3.7102,-3.7183,-3.724,-3.7328,-3.74,-3.7541,-3.7583,-3.7665,-3.7663,-3.7738,-3.7675,-3.7669,-3.7664,-3.7659,-3.7667,-3.775,-3.7752,-3.7754,-3.7755,0,-3.6813,-3.6826,-3.6902,-3.6985,-3.7048,-3.7114,-3.7178,-3.7219,-3.7252,-3.7314,-3.7405,-3.746,-3.757,-3.7657,-3.7741,-3.7779,-3.7773,-3.7775,-3.7796,-3.7793,-3.7779,-3.7788,-3.7565,-3.7769,-3.7768,-3.7767,-3.7766,-3.7765,-3.6931,-3.6997,-3.7063,-3.7148,-3.7199,-3.7258,-3.7325,-3.7362,-3.7438,-3.753,-3.7539,-3.7637,-3.7701,-3.7813,-3.7855,-3.7931,-3.791,-3.7941,-3.7949,-3.7956,-3.7961,-3.7767,-3.7947,-3.7946,-3.7946,-3.7946,-3.7945,0,-3.71,-3.7142,-3.722,-3.731,-3.7377,-3.7366,-3.7436,-3.7492,-3.7578,-3.7639,-3.771,-3.7814,-3.7899,-3.7948,-3.8032,-3.8084,-3.8083,-3.8106,-3.8102,-3.8111,-3.7975,-3.7949,-3.8105,-3.8105,-3.8105,-3.8105,-3.8105,-3.8105,-3.7196,-3.7307,-3.7328,-3.7464,-3.7505,-3.7602,-3.7643,-3.7697,-3.7746,-3.7863,-3.7934,-3.7965,-3.8021,-3.811,-3.8187,-3.8199,-3.823,-3.8255,-3.8264,-3.8137,-3.812,-3.8105,-3.808,-3.8261,-3.8261,-3.8394,-3.8395,-3.8396]}]]